Flag for Germany Weather past 2 weeks in Soltau, Lower Saxony, Germany

Now
50 °F

Passing clouds.


Feels Like: 47 °F
Forecast: 49 / 62 °F
Wind: 7 mph from Southwest

Location: Fassberg

Current Time: Aug 23, 2014 at 2:47:57 AM

Latest Report: Aug 23, 2014 at 1:20 AM


Visibility: N/A

Pressure: 29.83 "Hg

Humidity: 94%

Dew point: 48 °F

Location of SoltauLocation

Historic Weather in Soltau — Graph

°F

Soltau temperature yesterday

Maximum temperature yesterday: 66 °F (at 3:20 PM)
Minimum temperature yesterday: 50 °F (at 1:20 AM)
Average temperature yesterday: 58 °F

Past Weeks' High & Low Weather Summary

 TemperatureHumidityPressure
High77 °F (Aug 8, 3:20 PM)100% (Aug 8, 1:20 AM)30.01 "Hg (Aug 8, 1:20 AM)
Low43 °F (Aug 21, 1:20 AM)40% (Aug 11, 7:20 PM)29.56 "Hg (Aug 18, 9:20 AM)
Average60 °F75%29.82 "Hg
* Reported Aug 8 1:20 AM — Aug 23 1:20 AM, Soltau, Weather by CustomWeather, © 2014

Note: Actual official high and low records may vary slightly from our data, if they occured in-between our weather recording intervals... More about our weather records

Advertising

Soltau weather history for previous 24 hours

 ConditionsComfort  
Time TempWeatherWind HumidityBarometerVisibility
1:20 AM
Aug 23
50 °FPassing clouds.7 mph94%29.83 "HgN/A
12:20 AM50 °FPassing clouds.5 mph94%29.86 "HgN/A
11:20 PM
Aug 22
54 °FPartly cloudy.7 mph94%29.83 "HgN/A
10:20 PM55 °FPassing clouds.9 mph88%29.83 "HgN/A
9:20 PM55 °FLight rain. Broken clouds.14 mph88%29.83 "HgN/A
8:20 PM55 °FLight rain. Broken clouds.12 mph88%29.83 "HgN/A
7:20 PM59 °FLight rain. Broken clouds.6 mph77%29.83 "HgN/A
6:20 PM59 °FPartly sunny.6 mph82%29.83 "HgN/A
5:20 PM64 °FPartly sunny.8 mph52%29.83 "HgN/A
4:20 PM66 °FBroken clouds.18 mph46%29.83 "HgN/A
3:20 PM66 °FBroken clouds.17 mph46%29.83 "HgN/A
2:20 PM64 °FBroken clouds.16 mph52%29.86 "HgN/A
1:20 PM64 °FBroken clouds.15 mph52%29.86 "HgN/A
12:20 PM63 °FBroken clouds.18 mph52%29.86 "HgN/A
12:00 PM64 °FBroken clouds.20 mph49%29.86 "HgN/A
11:20 AM63 °FBroken clouds.17 mph52%29.86 "HgN/A
10:20 AM61 °FBroken clouds.15 mph63%29.89 "HgN/A
9:20 AM57 °FPartly sunny.10 mph72%29.89 "HgN/A
8:20 AM54 °FPartly sunny.10 mph77%29.89 "HgN/A
7:20 AM54 °FBroken clouds.7 mph77%29.89 "HgN/A
6:20 AM52 °FPassing clouds.7 mph82%29.89 "HgN/A
5:20 AM54 °FPassing clouds.8 mph77%29.89 "HgN/A
4:20 AM54 °FPassing clouds.6 mph77%29.92 "HgN/A
3:20 AM52 °FPassing clouds.6 mph82%29.92 "HgN/A
2:20 AM50 °FFog.5 mph88%29.92 "HgN/A
Weather by CustomWeather, © 2014

See weather overviewHow to use our weather pages